TimeCST,TemperatureF,Dew PointF,Humidity,Sea Level PressureIn,VisibilityMPH,Wind Direction,Wind SpeedMPH,Gust SpeedMPH,PrecipitationIn,Events,Conditions,WindDirDegrees,DateUTC
12:15 AM,30.0,24.1,79,30.26,10.0,NNW,20.7,-,N/A,,Overcast,340,2013-12-11 06:15:00
12:43 AM,28.0,21.9,78,30.28,10.0,North,23.0,33.4,N/A,,Overcast,350,2013-12-11 06:43:00
12:54 AM,28.0,21.0,75,30.34,10.0,North,24.2,-,N/A,,Overcast,350,2013-12-11 06:54:00
1:50 AM,24.8,15.8,69,30.34,10.0,North,27.6,-,N/A,,Mostly Cloudy,360,2013-12-11 07:50:00
1:54 AM,23.0,16.0,74,30.40,10.0,North,25.3,32.2,N/A,,Mostly Cloudy,360,2013-12-11 07:54:00
2:54 AM,19.9,14.0,78,30.46,10.0,North,26.5,-,N/A,,Mostly Cloudy,360,2013-12-11 08:54:00
3:01 AM,19.9,14.0,78,30.41,10.0,North,19.6,-,N/A,,Mostly Cloudy,360,2013-12-11 09:01:00
3:37 AM,18.0,12.0,78,30.44,8.0,North,13.8,-,0.00,,Mostly Cloudy,360,2013-12-11 09:37:00
3:49 AM,17.6,10.4,73,30.45,10.0,North,16.1,-,0.00,,Scattered Clouds,10,2013-12-11 09:49:00
3:54 AM,17.1,10.9,77,30.50,10.0,North,16.1,-,0.00,,Partly Cloudy,10,2013-12-11 09:54:00
4:19 AM,16.0,9.0,74,30.46,7.0,North,27.6,32.2,0.00,Snow,Light Snow,10,2013-12-11 10:19:00
4:54 AM,10.9,1.9,67,30.56,10.0,North,19.6,29.9,0.00,,Scattered Clouds,350,2013-12-11 10:54:00
5:54 AM,6.1,-4.0,63,30.62,10.0,North,15.0,-,N/A,,Clear,360,2013-12-11 11:54:00
6:54 AM,3.9,-4.0,70,30.66,10.0,North,17.3,-,N/A,,Clear,350,2013-12-11 12:54:00
7:54 AM,1.9,-6.0,69,30.68,10.0,North,8.1,-,N/A,,Clear,350,2013-12-11 13:54:00
8:54 AM,1.9,-5.1,72,30.70,10.0,North,5.8,-,N/A,,Clear,10,2013-12-11 14:54:00
9:54 AM,5.0,-5.1,63,30.74,10.0,NNW,8.1,-,N/A,,Clear,340,2013-12-11 15:54:00
10:54 AM,7.0,-4.0,61,30.74,10.0,NNW,10.4,-,N/A,,Clear,340,2013-12-11 16:54:00
11:54 AM,10.0,-4.0,53,30.73,10.0,Calm,Calm,-,N/A,,Clear,0,2013-12-11 17:54:00
12:54 PM,12.0,-2.9,51,30.70,10.0,NNW,3.5,-,N/A,,Clear,340,2013-12-11 18:54:00
1:54 PM,12.0,-4.0,49,30.68,10.0,West,8.1,-,N/A,,Clear,270,2013-12-11 19:54:00
2:54 PM,12.9,-2.0,51,30.67,10.0,West,3.5,-,N/A,,Clear,270,2013-12-11 20:54:00
3:54 PM,12.0,-0.0,59,30.66,10.0,SW,6.9,-,N/A,,Clear,230,2013-12-11 21:54:00
4:54 PM,10.9,-0.9,59,30.66,10.0,SSW,6.9,-,N/A,,Clear,200,2013-12-11 22:54:00
5:54 PM,5.0,-2.0,73,30.64,10.0,South,8.1,-,N/A,,Clear,180,2013-12-11 23:54:00
6:54 PM,5.0,-2.0,73,30.63,10.0,South,9.2,-,N/A,,Clear,180,2013-12-12 00:54:00
7:54 PM,3.9,-2.0,76,30.62,10.0,SSE,6.9,-,N/A,,Clear,160,2013-12-12 01:54:00
8:54 PM,5.0,-0.9,76,30.61,10.0,SSE,5.8,-,N/A,,Clear,160,2013-12-12 02:54:00
9:54 PM,6.1,-0.9,73,30.61,10.0,SSE,5.8,-,N/A,,Clear,160,2013-12-12 03:54:00
10:54 PM,6.1,-0.9,73,30.58,10.0,SSE,5.8,-,N/A,,Clear,160,2013-12-12 04:54:00
11:54 PM,6.1,-0.9,73,30.55,10.0,South,6.9,-,N/A,,Clear,180,2013-12-12 05:54:00